Tracking 28790 objects as of 18-Apr-2024
HD Live streaming from Space Station
objects crossing your sky now

NOAA 16 DEB

Track NOAA 16 DEB now!
10-day predictions


NORAD ID: 42351
Int'l Code: 2000-055QT
Perigee: 740.5 km
Apogee: 811.2 km
Inclination: 98.7 °
Period: 100.2 minutes
Semi major axis: 7146 km
RCS: Unknown
Launch date: September 21, 2000
Source: United States (US)
Launch site: AIR FORCE WESTERN TEST RANGE (AFWTR)

Note: This is SATELLITE DEBRIS
Your satellite tracking list
Your tracking list is empty




NASA's NSSDC Master Catalog

Two Line Element Set (TLE):
1 42351U 00055QT  24104.51371881  .00009556  00000-0  31951-2 0  9996
2 42351  98.6735 206.1173 0049498 188.0272 172.0127 14.36914043418218
Source of the keplerian elements: AFSPC